When you browse on this site, cookies collect data to enhance your experience and personalize the content and advertising you see.
Visit our Privacy Policy to learn more. By continuing to use the site, you agree to this use of cookies and data.
  • In Hungary
  • List of Countries
  • For 7 days
  • Water Temperature
  • Satellite Maps
  • Weather Map
  • News
  • Weather Widgets
  • user-avatar
    Login

    Hourly Weather Arcozelo

    Today, 21 July, Sunday

    Time Temperature Precipitation Wind Pressure Humidity
    00:00 +18°C° 0 mm 3 mps 763 mmHg 78%
    01:00 +18°C° 0 mm 3 mps 763 mmHg 79%
    02:00 +18°C° 0 mm 3 mps 763 mmHg 79%
    03:00 +18°C° 0 mm 3 mps 763 mmHg 79%
    04:00 +18°C° 0 mm 3 mps 763 mmHg 79%
    05:00 +18°C° 0 mm 3 mps 763 mmHg 79%
    06:00 +20°C° 0 mm 3 mps 763 mmHg 71%
    07:00 +24°C° 0 mm 3 mps 763 mmHg 63%
    08:00 +26°C° 0 mm 4 mps 763 mmHg 54%
    09:00 +28°C° 0 mm 4 mps 763 mmHg 50%
    10:00 +30°C° 0 mm 5 mps 763 mmHg 45%
    11:00 +32°C° 0 mm 5 mps 762 mmHg 40%
    12:00 +32°C° 0 mm 6 mps 762 mmHg 41%
    13:00 +32°C° 0 mm 7 mps 762 mmHg 42%
    14:00 +30°C° 0 mm 7 mps 762 mmHg 42%
    15:00 +30°C° 0 mm 7 mps 762 mmHg 44%
    16:00 +29°C° 0 mm 7 mps 762 mmHg 46%
    17:00 +28°C° 0 mm 6 mps 761 mmHg 47%
    18:00 +26°C° 0 mm 6 mps 762 mmHg 55%
    19:00 +25°C° 0 mm 5 mps 762 mmHg 62%
    20:00 +22°C° 0 mm 4 mps 763 mmHg 69%
    21:00 +21°C° 0 mm 3 mps 763 mmHg 69%
    22:00 +21°C° 0 mm 3 mps 762 mmHg 69%
    23:00 +21°C° 0 mm 2 mps 762 mmHg 69%

    Tomorrow, 22 July, Monday

    Time Temperature Precipitation Wind Pressure Humidity
    00:00 +21°C° 0 mm 2 mps 762 mmHg 69%
    01:00 +21°C° 0 mm 1 mps 762 mmHg 70%
    02:00 +21°C° 0 mm 1 mps 762 mmHg 70%
    03:00 +21°C° 0 mm 1 mps 761 mmHg 71%
    04:00 +21°C° 0 mm 1 mps 761 mmHg 71%
    05:00 +21°C° 0 mm 1 mps 761 mmHg 72%
    06:00 +24°C° 0 mm 1 mps 761 mmHg 63%
    07:00 +26°C° 0 mm 1 mps 761 mmHg 55%
    08:00 +29°C° 0 mm 1 mps 761 mmHg 47%
    09:00 +30°C° 0 mm 2 mps 761 mmHg 44%
    10:00 +31°C° 0 mm 2 mps 761 mmHg 40%
    11:00 +34°C° 0 mm 3 mps 761 mmHg 37%
    12:00 +34°C° 0 mm 3 mps 761 mmHg 37%
    13:00 +34°C° 0 mm 3 mps 760 mmHg 38%
    14:00 +34°C° 0 mm 3 mps 760 mmHg 38%
    15:00 +31°C° 0 mm 3 mps 760 mmHg 41%
    16:00 +30°C° 0 mm 3 mps 760 mmHg 45%
    17:00 +29°C° 0 mm 3 mps 759 mmHg 48%
    18:00 +27°C° 0 mm 3 mps 760 mmHg 57%
    19:00 +25°C° 0 mm 3 mps 760 mmHg 66%
    20:00 +23°C° 0 mm 2 mps 761 mmHg 75%
    21:00 +21°C° 0 mm 2 mps 761 mmHg 76%
    22:00 +21°C° 0 mm 2 mps 760 mmHg 78%
    23:00 +21°C° 0 mm 2 mps 760 mmHg 79%

    Day after tomorrow, 23 July, Tuesday

    Time Temperature Precipitation Wind Pressure Humidity
    00:00 +20°C° 0 mm 2 mps 760 mmHg 81%
    01:00 +20°C° 0 mm 2 mps 760 mmHg 84%
    02:00 +20°C° 0 mm 2 mps 760 mmHg 86%
    03:00 +20°C° 0 mm 2 mps 760 mmHg 87%
    04:00 +21°C° 0 mm 1 mps 760 mmHg 87%
    05:00 +21°C° 0 mm 1 mps 760 mmHg 88%
    06:00 +21°C° 0 mm 2 mps 760 mmHg 81%
    07:00 +23°C° 0 mm 2 mps 760 mmHg 74%
    08:00 +25°C° 0 mm 3 mps 760 mmHg 67%
    09:00 +26°C° 0 mm 3 mps 760 mmHg 62%
    10:00 +27°C° 0 mm 3 mps 760 mmHg 57%
    11:00 +29°C° 0 mm 4 mps 760 mmHg 52%
    12:00 +29°C° 0 mm 4 mps 760 mmHg 50%
    13:00 +29°C° 0 mm 4 mps 760 mmHg 49%
    14:00 +29°C° 0 mm 4 mps 760 mmHg 48%
    15:00 +28°C° 0 mm 4 mps 759 mmHg 49%
    16:00 +27°C° 0 mm 4 mps 759 mmHg 51%
    17:00 +26°C° 0 mm 4 mps 759 mmHg 53%
    18:00 +25°C° 0 mm 4 mps 760 mmHg 59%
    19:00 +22°C° 0 mm 3 mps 760 mmHg 65%
    20:00 +21°C° 0 mm 3 mps 761 mmHg 71%
    21:00 +20°C° 0 mm 3 mps 760 mmHg 73%
    22:00 +20°C° 0 mm 2 mps 760 mmHg 75%
    23:00 +19°C° 0 mm 2 mps 760 mmHg 77%

    24 July, Wednesday

    Time Temperature Precipitation Wind Pressure Humidity
    00:00 +19°C° 0 mm 2 mps 760 mmHg 77%
    01:00 +19°C° 0 mm 2 mps 759 mmHg 78%
    02:00 +18°C° 0 mm 2 mps 759 mmHg 78%
    03:00 +18°C° 0 mm 2 mps 759 mmHg 78%
    04:00 +19°C° 0 mm 1 mps 759 mmHg 77%
    05:00 +19°C° 0 mm 1 mps 759 mmHg 76%
    06:00 +22°C° 0 mm 1 mps 759 mmHg 66%
    07:00 +24°C° 0 mm 1 mps 759 mmHg 56%
    08:00 +27°C° 0 mm 1 mps 759 mmHg 47%
    09:00 +28°C° 0 mm 1 mps 759 mmHg 43%
    10:00 +29°C° 0 mm 2 mps 759 mmHg 40%
    11:00 +30°C° 0 mm 3 mps 759 mmHg 37%
    12:00 +30°C° 0 mm 3 mps 758 mmHg 42%
    13:00 +30°C° 0 mm 3 mps 758 mmHg 46%
    14:00 +29°C° 0 mm 3 mps 758 mmHg 51%
    15:00 +28°C° 0 mm 3 mps 758 mmHg 57%
    16:00 +27°C° 0 mm 2 mps 758 mmHg 62%
    17:00 +26°C° 0 mm 2 mps 758 mmHg 68%
    18:00 +25°C° 0 mm 1 mps 759 mmHg 74%
    19:00 +24°C° 0 mm 1 mps 759 mmHg 79%
    20:00 +21°C° 0 mm 0 mps 759 mmHg 85%
    21:00 +20°C° 0 mm 0 mps 759 mmHg 86%
    22:00 +20°C° 0 mm 0 mps 759 mmHg 87%
    23:00 +20°C° 0 mm 0 mps 759 mmHg 88%

    25 July, Thursday

    Time Temperature Precipitation Wind Pressure Humidity
    00:00 +22°C° 0 mm 1 mps 759 mmHg 88%
    01:00 +22°C° 0 mm 1 mps 759 mmHg 88%
    02:00 +22°C° 0 mm 1 mps 759 mmHg 89%
    03:00 +22°C° 0 mm 1 mps 759 mmHg 89%
    04:00 +20°C° 0 mm 0 mps 759 mmHg 89%
    05:00 +20°C° 0 mm 0 mps 759 mmHg 89%
    06:00 +24°C° 0 mm 1 mps 759 mmHg 80%
    07:00 +25°C° 0 mm 1 mps 760 mmHg 70%
    08:00 +27°C° 0 mm 2 mps 760 mmHg 61%
    09:00 +27°C° 0 mm 2 mps 760 mmHg 59%
    10:00 +28°C° 0 mm 3 mps 760 mmHg 58%
    11:00 +28°C° 0 mm 4 mps 760 mmHg 57%
    12:00 +28°C° 0 mm 5 mps 760 mmHg 57%
    13:00 +28°C° 0 mm 6 mps 760 mmHg 57%
    14:00 +28°C° 0 mm 6 mps 760 mmHg 57%
    15:00 +27°C° 0 mm 6 mps 760 mmHg 56%
    16:00 +26°C° 0 mm 5 mps 761 mmHg 55%
    17:00 +25°C° 0 mm 5 mps 761 mmHg 55%
    18:00 +22°C° 0 mm 5 mps 761 mmHg 61%
    19:00 +20°C° 0 mm 5 mps 762 mmHg 68%
    20:00 +19°C° 0 mm 5 mps 762 mmHg 75%
    21:00 +17°C° 0 mm 5 mps 763 mmHg 76%
    22:00 +17°C° 0 mm 5 mps 763 mmHg 78%
    23:00 +16°C° 0 mm 5 mps 763 mmHg 80%

    26 July, Friday

    Time Temperature Precipitation Wind Pressure Humidity
    00:00 +16°C° 0 mm 5 mps 763 mmHg 80%
    01:00 +17°C° 0 mm 4 mps 763 mmHg 81%
    02:00 +15°C° 0 mm 4 mps 763 mmHg 81%
    03:00 +15°C° 0 mm 4 mps 763 mmHg 81%
    04:00 +16°C° 0 mm 3 mps 763 mmHg 81%
    05:00 +16°C° 0 mm 3 mps 763 mmHg 81%
    06:00 +18°C° 0 mm 4 mps 763 mmHg 71%
    07:00 +21°C° 0 mm 4 mps 763 mmHg 60%
    08:00 +23°C° 0 mm 4 mps 763 mmHg 50%
    09:00 +26°C° 0 mm 5 mps 763 mmHg 44%
    10:00 +27°C° 0 mm 6 mps 763 mmHg 38%
    11:00 +29°C° 0 mm 7 mps 763 mmHg 33%
    12:00 +29°C° 0 mm 8 mps 762 mmHg 35%
    13:00 +29°C° 0 mm 8 mps 762 mmHg 37%
    14:00 +29°C° 0 mm 9 mps 762 mmHg 39%
    15:00 +28°C° 0 mm 9 mps 762 mmHg 42%
    16:00 +26°C° 0 mm 9 mps 762 mmHg 45%
    17:00 +24°C° 0 mm 8 mps 762 mmHg 49%
    18:00 +23°C° 0 mm 8 mps 762 mmHg 55%
    19:00 +21°C° 0 mm 7 mps 763 mmHg 61%
    20:00 +20°C° 0 mm 6 mps 763 mmHg 67%
    21:00 +19°C° 0 mm 6 mps 763 mmHg 68%
    22:00 +19°C° 0 mm 5 mps 763 mmHg 69%
    23:00 +19°C° 0 mm 5 mps 763 mmHg 70%
    Show more